User: anonymous   Login
Location: Unspecified
(0.0000°N, 0.0000°E)
Time: 20:06:28
(UTC+00:00)
Language:

STARLINK-2326 - Orbit

View from above orbital plane
View from above orbital plane
View from above satellite
View from above satellite

Ground track
Ground track

The orbit is defined by the following mean orbital elements,

1 47870U          26145.38518781 +.00000000 +00000-0 +55853-4 0 00008
2 47870  53.1597 284.2683 0001083  74.8100 285.3022 15.31699310    03
Epoch (UTC): 25 May 2026 09:14:40
Eccentricity: 0.0001083
inclination: 53.1597°
perigee height: 470 km
apogee height: 471 km
right ascension of ascending node: 284.2683°
argument of perigee: 74.8100°
revolutions per day: 15.31699310
mean anomaly at epoch: 285.3022°

The dashed part of the orbit path shows where the satellite is in the earth's shadow,  

DLR